SCP
-0 0 -0 -0 0 -0 0 0 -0 -0 -0 -0 -0 -0 -0 -0 0 0 -0 0 0 0 -0 -0 0 0 0 0 0 0 0 0 0 0 0 0 0 0 0 0 0 0 0
0 0 -0 -0 0 -0 -0 -0 -0 -0 -0 -0 -0 -0 -0 0 0 0 -0 -0 0 -0 0 0 0 0 0 0 0 0 0 0 0 0 0 0 0 0 0 0 0 0 0
0 0 0 -0 0 0 -0 -0 -0 -0 -0 -0 -0 -0 -0 0 -0 -0 -0 -0 -0 0 0 0 0 0 0 0 0 0 -0 -0 -0 0 0 0 0 0 0 0 0 0 0
0 0 0 -0 0 0 -0 -0 -0 -0 -0 -0 -0 -0 -0 -0 0 -0 0 0 0 0 0 0 0 0 0 0 0 0 0 0 -0 0 0 0 0 0 0 0 0 0 0
-0 0 0 0 0 0 0 -0 -0 0 -0 0 -0 -0 -0 -0 -0 0 -0 -0 -0 -0 -0 0 0 0 0 0 0 0 0 0 0 0 0 0 0 0 0 0 0 0 0
0 0 0 0 0 -0 -0 0 0 -0 0 0 0 0 0 0 -0 -0 -0 -0 -0 -0 -0 -0 -0 0 0 0 0 0 0 0 0 0 0 0 0 0 0 0 0 0 0
-0 -0 0 -0 -0 -0 -0 -0 -0 -0 -0 -0 -0 -0 -0 -0 -0 -0 -0 -0 -0 -0 -0 -0 -0 -0 0 0 0 0 0 0 0 0 0 0 0 0 0 0 0 0 0
0 0 -0 -0 -0 -0 -0 -0 -0 -0 -0 -0 -0 -0 -0 -0 -0 -0 -0 -0 -0 -0 -0 -0 -0 -0 0 0 0 -0 0 0 0 0 0 0 0 0 0 0 0 0 0
0 -0 -0 0 -0 -0 -0 -0 -0 -0 -0 -0 -0 -0 -0 -0 -0 -0 -0 -0 -0 -0 -0 -0 -0 0 0 0 0 0 0 0 0 0 0 0 0 0 0 0 0 0 0
-0 0 -0 -0 -0 -0 -0 -0 -0 -0 -0 -0 -0 -0 -0 -0 -0 -0 0 -0 -0 0 -0 -0 0 0 0 0 0 0 0 0 0 0 0 0 0 0 0 0 0 0 0
0 0 0 -0 -0 -0 -0 -0 -0 -0 -0 -0 -0 -0 -0 0 0 0 0 0 0 0 0 0 0 0 0 0 0 0 0 0 0 0 0 0 0 0 0 0 0 0 0
0 0 0 0 0 0 0 -0 -0 -0 0 0 0 0 0 0 0 0 0 0 0 0 0 0 0 0 0 0 0 0 0 0 0 0 0 0 0 0 0 0 0 0 0
0 0 0 0 0 0 0 0 0 0 0 0 0 0 0 0 0 0 0 0 0 0 0 0 0 0 0 0 0 0 0 0 0 0 0 0 0 0 0 0 0 0 0
0 0 0 0 0 0 0 0 0 0 0 0 0 0 0 0 0 0 0 0 0 0 0 0 0 0 0 0 0 0 0 0 0 0 0 0 0 0 0 0 0 0 0
0 0 0 0 0 0 0 0 0 0 0 0 0 0 0 0 0 0 0 0 0 0 0 0 0 0 0 0 0 0 0 0 0 0 0 0 0 0 0 0 0 0 0
0 0 0 0 0 0 0 0 0 0 0 0 0 0 0 0 0 0 0 0 0 0 0 0 0 0 0 0 0 0 0 0 0 0 0 0 0 0 0 0 0 0 0
0 0 0 0 0 0 0 0 0 0 0 0 0 0 0 0 0 0 0 0 0 0 0 0 0 0 0 0 0 0 0 0 0 0 0 0 0 0 0 0 0 0 0
0 0 0 0 0 0 0 0 0 0 0 0 0 0 0 0 0 0 0 0 0 0 0 0 0 0 0 0 0 0 0 0 0 0 0 0 0 0 0 0 0 0 0
0 0 0 0 0 0 0 0 0 0 0 0 0 0 0 0 0 0 0 0 0 0 0 0 0 0 0 0 0 0 0 0 0 0 0 0 0 0 0 0 0 0 0
0 0 0 0 0 0 0 0 0 0 0 0 0 0 0 0 0 0 0 0 0 0 0 0 0 0 0 0 0 0 0 0 0 0 0 0 0 0 0 0 0 0 0
0 0 0 0 0 0 0 0 0 0 0 0 0 0 0 0 0 0 0 0 0 0 0 0 0 0 0 0 0 0 0 0 0 0 0 0 0 0 0 0 0 0 0
0 0 0 0 0 0 0 0 0 0 0 0 0 0 0 0 0 0 0 0 0 0 0 0 0 0 0 0 0 0 0 0 0 0 0 0 0 0 0 0 0 0 0
0 0 0 0 0 0 0 0 0 0 0 0 0 0 0 0 0 0 0 0 0 0 0 0 0 0 0 0 0 0 0 0 0 0 0 0 0 0 0 0 0 0 0
0 0 0 0 0 0 0 0 0 0 0 0 0 0 0 0 0 0 0 0 0 0 0 0 0 0 0 0 0 0 0 0 0 0 0 0 0 0 0 0 0 0 0
0 0 0 0 0 0 0 0 0 0 0 0 0 0 0 0 0 0 0 0 0 0 0 0 0 0 0 0 0 0 0 0 0 0 0 0 0 0 0 0 0 0 0
0 0 0 0 0 0 0 0 0 0 0 0 0 0 0 0 0 0 0 0 0 0 0 0 0 0 0 0 0 0 0 0 0 0 0 0 0 0 0 0 0 0 0
Wind_Speed_500mb
16 24 25 24 23 20 17 17 15 14 15 11 8 11 15 18 21 25 25 29 33 36 35 31 29 31 38 38 40 38 38 44 46 46 46 41 44 42 40 39 42 40 49
20 26 26 25 19 17 16 14 13 11 8 7 11 13 16 20 22 30 23 24 31 33 32 31 31 31 34 36 37 38 39 44 45 40 40 41 41 42 40 39 45 44 46
17 26 27 25 19 17 15 12 10 12 9 10 14 16 22 22 26 29 21 21 26 29 29 29 29 31 34 35 36 40 44 48 42 32 35 39 40 38 38 36 39 41 40
16 26 24 23 19 15 14 13 14 12 12 13 14 20 26 24 28 28 21 21 22 24 28 28 28 30 32 34 36 38 40 45 32 20 29 35 38 36 32 33 35 36 40
19 18 24 22 19 14 13 12 12 12 12 14 15 18 24 25 29 26 20 14 16 22 27 27 26 28 29 31 33 35 36 38 25 20 22 26 30 30 31 30 33 35 36
24 23 21 22 18 14 10 10 10 9 12 13 15 16 18 20 24 25 22 15 18 20 23 23 23 24 25 26 28 29 35 33 23 19 18 23 30 27 27 28 30 30 32
24 23 24 24 21 17 11 6 10 9 10 13 13 12 14 18 20 20 20 19 16 17 21 20 21 20 21 21 23 25 29 30 16 9 16 20 25 23 22 24 25 26 26
25 21 31 27 24 20 16 9 9 10 9 10 11 9 9 13 15 13 13 16 16 13 18 18 17 16 16 17 19 21 20 26 10 11 13 16 19 18 16 18 20 22 23
30 23 28 30 27 23 19 14 12 10 10 10 10 8 8 7 9 11 13 14 14 11 13 13 13 12 13 14 15 17 19 17 18 10 11 11 14 13 12 14 16 20 19
27 30 21 31 30 27 24 20 18 14 12 10 9 10 8 7 7 9 11 13 15 12 11 10 9 9 10 10 11 12 13 12 11 5 4 6 9 8 9 10 12 14 15
29 30 29 25 30 31 29 26 25 22 18 14 12 11 12 11 12 12 11 12 13 14 12 11 9 7 7 6 6 6 4 6 6 9 4 5 5 4 4 5 7 9 10
34 34 35 36 29 36 31 32 30 28 24 21 17 14 15 16 18 18 15 15 16 16 15 13 11 9 8 7 4 4 5 2 5 10 6 8 7 6 6 5 5 7 8
33 33 36 39 34 35 39 35 33 35 32 30 26 22 23 24 23 22 19 20 20 20 18 16 15 13 12 6 7 9 8 8 8 12 9 10 10 10 10 8 6 6 9
34 35 37 39 42 41 39 39 36 38 37 34 31 27 31 31 28 29 27 26 25 23 23 20 19 19 13 15 15 14 12 13 12 17 15 13 13 13 14 12 10 9 10
37 38 42 42 43 45 42 38 42 41 41 40 37 35 35 35 33 33 33 31 30 29 28 24 23 20 19 19 18 18 17 17 18 19 21 16 15 15 16 15 14 14 12
40 40 41 46 47 47 47 45 44 49 44 41 42 42 38 39 39 38 38 37 33 33 31 30 28 25 23 22 21 21 21 22 21 22 22 22 18 18 16 15 16 18 15
45 43 46 46 50 53 53 51 50 51 50 48 46 46 43 43 44 41 42 42 39 38 35 34 33 31 28 26 24 25 24 26 26 27 27 28 23 16 14 14 16 17 17
46 50 48 50 50 53 57 56 56 54 55 55 51 51 49 46 48 47 47 46 42 43 42 41 38 37 34 32 28 27 26 24 26 27 28 27 24 18 16 18 18 16 19
46 49 51 53 56 53 57 61 60 58 61 58 58 57 56 53 53 53 52 50 48 48 47 45 44 42 39 35 32 27 26 28 29 34 26 24 24 22 19 20 22 21 21
48 50 52 54 57 58 56 62 65 64 65 65 67 65 63 62 59 60 58 57 55 55 53 51 50 46 44 38 34 32 33 36 35 34 34 29 29 25 25 26 25 24 23
51 56 60 62 61 62 63 66 72 75 74 74 76 73 71 71 67 67 66 65 65 65 60 57 55 54 52 44 38 37 45 39 36 37 38 34 37 30 32 29 30 30 27
56 59 64 67 66 68 67 68 72 74 77 79 80 82 79 79 76 74 74 75 73 72 69 66 65 63 60 52 54 47 41 41 40 33 36 43 41 36 40 40 37 30 31
60 60 61 63 65 69 71 69 69 71 74 82 88 90 90 88 85 84 83 82 82 81 79 75 74 73 69 63 60 51 22 31 17 31 36 42 41 44 46 46 40 39 38
38 49 55 55 55 60 67 74 77 79 84 87 91 91 92 93 94 92 91 90 89 89 88 85 82 81 76 74 66 69 60 31 24 18 36 37 41 48 50 47 48 45 44
24 23 26 44 51 54 59 70 77 81 84 84 84 89 91 92 94 94 96 98 99 98 97 95 92 91 89 84 82 77 73 65 50 38 33 40 45 52 55 56 54 52 46
20 29 34 35 45 49 51 59 72 83 84 85 87 85 87 94 97 97 96 100 104 107 105 104 102 99 97 93 90 88 87 81 76 75 66 61 53 55 54 54 58 57 49
Wind_Direction_500mb
162 146 136 125 121 119 118 112 104 100 106 96 70 84 87 88 95 96 85 97 101 106 113 108 100 95 89 95 98 93 84 79 77 83 85 80 80 83 87 84 75 70 72
163 153 142 133 127 121 119 108 111 112 106 85 95 98 99 104 100 95 96 90 102 102 100 107 101 93 91 94 96 91 83 79 76 81 83 79 73 78 80 76 74 71 72
168 152 149 141 142 129 123 103 112 126 110 99 109 107 110 113 102 99 97 92 101 102 104 103 96 93 91 94 96 92 84 75 69 66 79 79 76 77 76 75 73 75 74
176 162 151 147 144 133 124 98 107 114 111 113 113 117 117 103 110 106 99 91 104 106 101 99 97 95 93 95 98 95 92 88 80 65 76 84 81 75 72 71 69 72 73
142 172 153 152 147 139 126 99 101 102 107 114 118 115 123 111 112 107 108 101 104 107 102 102 100 97 96 96 97 98 97 99 104 94 79 78 80 78 71 69 67 63 66
165 173 174 161 153 147 141 110 103 96 111 116 119 118 123 123 120 122 122 108 121 103 104 106 102 99 97 98 99 100 94 85 65 74 83 84 77 72 68 67 67 64 64
180 178 180 169 163 160 162 142 120 114 111 121 122 122 123 126 133 131 138 125 117 113 108 109 106 101 99 100 103 103 102 103 102 80 74 77 81 76 71 67 62 59 59
176 189 173 175 172 174 173 170 151 141 135 139 131 135 137 146 140 142 150 142 132 120 113 113 108 106 107 106 104 103 99 98 102 48 67 79 82 80 71 67 60 56 54
182 189 181 182 183 185 187 185 180 168 156 155 157 154 165 164 162 164 153 151 143 140 127 124 116 113 113 110 107 106 104 108 101 38 33 55 83 75 70 64 56 53 47
194 174 190 188 191 194 195 197 194 188 183 183 173 176 185 189 193 181 172 166 160 160 153 146 139 131 121 115 112 114 116 111 103 211 345 33 63 56 55 59 54 50 42
200 184 178 195 185 196 196 204 204 204 208 210 206 195 201 200 206 207 195 184 180 179 175 176 174 165 153 137 129 134 156 118 149 266 358 346 16 29 20 35 42 36 23
203 193 188 197 198 191 201 202 211 215 219 224 225 217 215 218 217 219 213 202 199 198 197 199 200 199 195 183 179 207 246 190 224 255 313 306 317 324 317 323 351 1 355
208 203 201 199 198 207 200 203 209 218 222 226 225 218 222 225 231 233 222 218 212 210 210 212 216 220 227 231 245 246 263 247 257 269 285 290 295 295 291 295 310 320 316
218 215 212 209 203 211 214 204 213 220 226 224 223 225 225 227 231 236 226 224 221 219 221 221 227 235 240 232 243 251 258 259 251 263 282 281 278 277 278 280 283 279 284
232 222 221 218 214 214 225 222 220 228 227 230 224 236 231 229 233 234 238 230 227 224 229 231 237 243 244 245 247 255 262 260 265 264 274 273 270 272 271 270 266 262 264
238 237 231 225 222 221 225 230 223 232 236 234 232 237 234 231 235 234 236 238 235 234 233 234 238 244 244 248 252 262 267 272 270 268 270 272 269 270 263 262 252 252 253
238 238 239 239 229 226 230 228 232 229 234 237 234 237 236 233 236 238 237 237 238 238 239 238 239 244 246 250 255 263 269 273 272 275 270 263 266 250 252 253 245 244 243
237 237 236 239 238 234 232 234 232 234 234 238 237 238 240 235 238 240 240 241 239 239 239 242 241 243 246 248 254 258 270 278 288 293 270 258 251 245 248 249 241 236 231
249 242 240 237 242 239 236 237 238 238 239 241 240 239 240 241 239 241 242 242 242 242 242 242 242 243 245 246 250 255 258 267 272 276 270 241 237 248 251 239 233 230 229
240 247 249 244 242 243 240 238 240 241 241 243 244 242 243 242 240 240 244 242 243 243 243 242 242 242 245 248 250 253 250 252 267 266 265 247 241 240 239 239 227 228 231
248 240 240 245 245 242 240 239 237 240 242 243 245 246 245 244 243 242 243 244 243 245 246 245 244 243 243 238 236 244 254 263 264 257 257 253 241 234 237 235 235 232 233
245 248 245 244 245 248 249 247 245 245 248 250 251 249 247 247 247 245 245 244 245 245 245 243 243 243 244 238 233 241 255 266 255 254 250 254 239 237 235 236 241 241 238
254 254 256 252 247 248 255 254 251 248 247 248 249 250 250 249 249 249 248 246 246 247 247 247 245 244 243 242 237 233 219 236 254 246 245 249 240 233 233 234 240 242 248
274 262 254 258 257 251 250 252 254 253 251 257 256 257 255 253 252 251 250 249 247 248 249 249 247 246 244 242 239 239 237 240 217 233 237 240 237 235 234 233 238 247 252
251 252 247 249 255 256 257 253 256 253 259 263 258 257 260 259 256 255 253 251 249 248 250 250 248 245 245 244 244 241 243 236 229 230 230 232 234 237 240 242 246 250 249
270 259 249 257 245 247 252 256 252 254 259 261 258 253 254 259 260 258 256 255 253 251 250 252 252 249 248 247 245 245 246 241 237 230 235 238 237 239 243 246 247 248 248
Wind_Speed_850mb
16 24 25 24 23 20 17 17 15 14 15 11 8 11 15 18 21 25 25 29 33 36 35 31 29 31 38 38 40 38 38 44 46 46 46 41 44 42 40 39 42 40 49
20 26 26 25 19 17 16 14 13 11 8 7 11 13 16 20 22 30 23 24 31 33 32 31 31 31 34 36 37 38 39 44 45 40 40 41 41 42 40 39 45 44 46
17 26 27 25 19 17 15 12 10 12 9 10 14 16 22 22 26 29 21 21 26 29 29 29 29 31 34 35 36 40 44 48 42 32 35 39 40 38 38 36 39 41 40
16 26 24 23 19 15 14 13 14 12 12 13 14 20 26 24 28 28 21 21 22 24 28 28 28 30 32 34 36 38 40 45 32 20 29 35 38 36 32 33 35 36 40
19 18 24 22 19 14 13 12 12 12 12 14 15 18 24 25 29 26 20 14 16 22 27 27 26 28 29 31 33 35 36 38 25 20 22 26 30 30 31 30 33 35 36
24 23 21 22 18 14 10 10 10 9 12 13 15 16 18 20 24 25 22 15 18 20 23 23 23 24 25 26 28 29 35 33 23 19 18 23 30 27 27 28 30 30 32
24 23 24 24 21 17 11 6 10 9 10 13 13 12 14 18 20 20 20 19 16 17 21 20 21 20 21 21 23 25 29 30 16 9 16 20 25 23 22 24 25 26 26
25 21 31 27 24 20 16 9 9 10 9 10 11 9 9 13 15 13 13 16 16 13 18 18 17 16 16 17 19 21 20 26 10 11 13 16 19 18 16 18 20 22 23
30 23 28 30 27 23 19 14 12 10 10 10 10 8 8 7 9 11 13 14 14 11 13 13 13 12 13 14 15 17 19 17 18 10 11 11 14 13 12 14 16 20 19
27 30 21 31 30 27 24 20 18 14 12 10 9 10 8 7 7 9 11 13 15 12 11 10 9 9 10 10 11 12 13 12 11 5 4 6 9 8 9 10 12 14 15
29 30 29 25 30 31 29 26 25 22 18 14 12 11 12 11 12 12 11 12 13 14 12 11 9 7 7 6 6 6 4 6 6 9 4 5 5 4 4 5 7 9 10
34 34 35 36 29 36 31 32 30 28 24 21 17 14 15 16 18 18 15 15 16 16 15 13 11 9 8 7 4 4 5 2 5 10 6 8 7 6 6 5 5 7 8
33 33 36 39 34 35 39 35 33 35 32 30 26 22 23 24 23 22 19 20 20 20 18 16 15 13 12 6 7 9 8 8 8 12 9 10 10 10 10 8 6 6 9
34 35 37 39 42 41 39 39 36 38 37 34 31 27 31 31 28 29 27 26 25 23 23 20 19 19 13 15 15 14 12 13 12 17 15 13 13 13 14 12 10 9 10
37 38 42 42 43 45 42 38 42 41 41 40 37 35 35 35 33 33 33 31 30 29 28 24 23 20 19 19 18 18 17 17 18 19 21 16 15 15 16 15 14 14 12
40 40 41 46 47 47 47 45 44 49 44 41 42 42 38 39 39 38 38 37 33 33 31 30 28 25 23 22 21 21 21 22 21 22 22 22 18 18 16 15 16 18 15
45 43 46 46 50 53 53 51 50 51 50 48 46 46 43 43 44 41 42 42 39 38 35 34 33 31 28 26 24 25 24 26 26 27 27 28 23 16 14 14 16 17 17
46 50 48 50 50 53 57 56 56 54 55 55 51 51 49 46 48 47 47 46 42 43 42 41 38 37 34 32 28 27 26 24 26 27 28 27 24 18 16 18 18 16 19
46 49 51 53 56 53 57 61 60 58 61 58 58 57 56 53 53 53 52 50 48 48 47 45 44 42 39 35 32 27 26 28 29 34 26 24 24 22 19 20 22 21 21
48 50 52 54 57 58 56 62 65 64 65 65 67 65 63 62 59 60 58 57 55 55 53 51 50 46 44 38 34 32 33 36 35 34 34 29 29 25 25 26 25 24 23
51 56 60 62 61 62 63 66 72 75 74 74 76 73 71 71 67 67 66 65 65 65 60 57 55 54 52 44 38 37 45 39 36 37 38 34 37 30 32 29 30 30 27
56 59 64 67 66 68 67 68 72 74 77 79 80 82 79 79 76 74 74 75 73 72 69 66 65 63 60 52 54 47 41 41 40 33 36 43 41 36 40 40 37 30 31
60 60 61 63 65 69 71 69 69 71 74 82 88 90 90 88 85 84 83 82 82 81 79 75 74 73 69 63 60 51 22 31 17 31 36 42 41 44 46 46 40 39 38
38 49 55 55 55 60 67 74 77 79 84 87 91 91 92 93 94 92 91 90 89 89 88 85 82 81 76 74 66 69 60 31 24 18 36 37 41 48 50 47 48 45 44
24 23 26 44 51 54 59 70 77 81 84 84 84 89 91 92 94 94 96 98 99 98 97 95 92 91 89 84 82 77 73 65 50 38 33 40 45 52 55 56 54 52 46
20 29 34 35 45 49 51 59 72 83 84 85 87 85 87 94 97 97 96 100 104 107 105 104 102 99 97 93 90 88 87 81 76 75 66 61 53 55 54 54 58 57 49
Wind_Direction_850mb
162 146 136 125 121 119 118 112 104 100 106 96 70 84 87 88 95 96 85 97 101 106 113 108 100 95 89 95 98 93 84 79 77 83 85 80 80 83 87 84 75 70 72
163 153 142 133 127 121 119 108 111 112 106 85 95 98 99 104 100 95 96 90 102 102 100 107 101 93 91 94 96 91 83 79 76 81 83 79 73 78 80 76 74 71 72
168 152 149 141 142 129 123 103 112 126 110 99 109 107 110 113 102 99 97 92 101 102 104 103 96 93 91 94 96 92 84 75 69 66 79 79 76 77 76 75 73 75 74
176 162 151 147 144 133 124 98 107 114 111 113 113 117 117 103 110 106 99 91 104 106 101 99 97 95 93 95 98 95 92 88 80 65 76 84 81 75 72 71 69 72 73
142 172 153 152 147 139 126 99 101 102 107 114 118 115 123 111 112 107 108 101 104 107 102 102 100 97 96 96 97 98 97 99 104 94 79 78 80 78 71 69 67 63 66
165 173 174 161 153 147 141 110 103 96 111 116 119 118 123 123 120 122 122 108 121 103 104 106 102 99 97 98 99 100 94 85 65 74 83 84 77 72 68 67 67 64 64
180 178 180 169 163 160 162 142 120 114 111 121 122 122 123 126 133 131 138 125 117 113 108 109 106 101 99 100 103 103 102 103 102 80 74 77 81 76 71 67 62 59 59
176 189 173 175 172 174 173 170 151 141 135 139 131 135 137 146 140 142 150 142 132 120 113 113 108 106 107 106 104 103 99 98 102 48 67 79 82 80 71 67 60 56 54
182 189 181 182 183 185 187 185 180 168 156 155 157 154 165 164 162 164 153 151 143 140 127 124 116 113 113 110 107 106 104 108 101 38 33 55 83 75 70 64 56 53 47
194 174 190 188 191 194 195 197 194 188 183 183 173 176 185 189 193 181 172 166 160 160 153 146 139 131 121 115 112 114 116 111 103 211 345 33 63 56 55 59 54 50 42
200 184 178 195 185 196 196 204 204 204 208 210 206 195 201 200 206 207 195 184 180 179 175 176 174 165 153 137 129 134 156 118 149 266 358 346 16 29 20 35 42 36 23
203 193 188 197 198 191 201 202 211 215 219 224 225 217 215 218 217 219 213 202 199 198 197 199 200 199 195 183 179 207 246 190 224 255 313 306 317 324 317 323 351 1 355
208 203 201 199 198 207 200 203 209 218 222 226 225 218 222 225 231 233 222 218 212 210 210 212 216 220 227 231 245 246 263 247 257 269 285 290 295 295 291 295 310 320 316
218 215 212 209 203 211 214 204 213 220 226 224 223 225 225 227 231 236 226 224 221 219 221 221 227 235 240 232 243 251 258 259 251 263 282 281 278 277 278 280 283 279 284
232 222 221 218 214 214 225 222 220 228 227 230 224 236 231 229 233 234 238 230 227 224 229 231 237 243 244 245 247 255 262 260 265 264 274 273 270 272 271 270 266 262 264
238 237 231 225 222 221 225 230 223 232 236 234 232 237 234 231 235 234 236 238 235 234 233 234 238 244 244 248 252 262 267 272 270 268 270 272 269 270 263 262 252 252 253
238 238 239 239 229 226 230 228 232 229 234 237 234 237 236 233 236 238 237 237 238 238 239 238 239 244 246 250 255 263 269 273 272 275 270 263 266 250 252 253 245 244 243
237 237 236 239 238 234 232 234 232 234 234 238 237 238 240 235 238 240 240 241 239 239 239 242 241 243 246 248 254 258 270 278 288 293 270 258 251 245 248 249 241 236 231
249 242 240 237 242 239 236 237 238 238 239 241 240 239 240 241 239 241 242 242 242 242 242 242 242 243 245 246 250 255 258 267 272 276 270 241 237 248 251 239 233 230 229
240 247 249 244 242 243 240 238 240 241 241 243 244 242 243 242 240 240 244 242 243 243 243 242 242 242 245 248 250 253 250 252 267 266 265 247 241 240 239 239 227 228 231
248 240 240 245 245 242 240 239 237 240 242 243 245 246 245 244 243 242 243 244 243 245 246 245 244 243 243 238 236 244 254 263 264 257 257 253 241 234 237 235 235 232 233
245 248 245 244 245 248 249 247 245 245 248 250 251 249 247 247 247 245 245 244 245 245 245 243 243 243 244 238 233 241 255 266 255 254 250 254 239 237 235 236 241 241 238
254 254 256 252 247 248 255 254 251 248 247 248 249 250 250 249 249 249 248 246 246 247 247 247 245 244 243 242 237 233 219 236 254 246 245 249 240 233 233 234 240 242 248
274 262 254 258 257 251 250 252 254 253 251 257 256 257 255 253 252 251 250 249 247 248 249 249 247 246 244 242 239 239 237 240 217 233 237 240 237 235 234 233 238 247 252
251 252 247 249 255 256 257 253 256 253 259 263 258 257 260 259 256 255 253 251 249 248 250 250 248 245 245 244 244 241 243 236 229 230 230 232 234 237 240 242 246 250 249
270 259 249 257 245 247 252 256 252 254 259 261 258 253 254 259 260 258 256 255 253 251 250 252 252 249 248 247 245 245 246 241 237 230 235 238 237 239 243 246 247 248 248